Curtin, Australia

10:33 AM AWST on October 18, 2017 (GMT +0800)
Curtin

Weather History for YCIN - October, 2013

Change the Weather History Date:

Tuesday, October 15, 2013

  Actual Average Record
Temperature  
Mean Temperature 88 °F -  
Max Temperature 102 °F - - ()
Min Temperature 75 °F - - ()
Cooling Degree Days 24    
Growing Degree Days 38 (Base 50)    
Moisture  
Dew Point 68 °F    
Average Humidity 52    
Maximum Humidity 83    
Minimum Humidity 16    
Precipitation  
Precipitation 0.00 in - - ()
Sea Level Pressure  
Sea Level Pressure 29.90 in    
Wind  
Wind Speed 7 mph ()    
Max Wind Speed 14 mph    
Max Gust Speed -    
T = Trace of Precipitation, MM = Missing Value Source: Averaged Metar Reports

Daily Weather History Graph

Daily Weather History Graph

Search for Another Location

Airport or City:

Trip Planner

Search our weather history database for the weather conditions in past years. The results will help you decide how hot, cold, wet, or windy it might be!

Date:

Astronomy

Oct. 15, 2013 Rise Set
Actual Time 5:16 AM AWST 5:45 PM AWST
Civil Twilight 4:54 AM AWST 6:07 PM AWST
Nautical Twilight 4:28 AM AWST 6:32 PM AWST
Astronomical Twilight 4:02 AM AWST 6:58 PM AWST
Moon 2:24 PM AWST (10/15) 2:14 AM AWST (10/15)
Length of Visible Light 13h 12m
Length of Day
12h 28m
Waxing Gibbous, 83% of the Moon is Illuminated
Oct 15
Waxing Gibbous
Oct 19
Full
Oct 27
Last Quarter
Nov 3
New
Nov 10
First Quarter

Hourly Weather History & Observations

Time (AWST) Temp. Heat Index Dew Point Humidity Pressure Visibility Wind Dir Wind Speed Gust Speed Precip Events Conditions
12:00 AM 82 °F - 64 °F 45% 29.90 in - NNE 11.5 mph - -  
12:00 AM 82.4 °F 83.9 °F 64.4 °F 54% 29.89 in - NNE 11.5 mph - N/A   Scattered Clouds
1:00 AM 82.4 °F 87.2 °F 71.6 °F 70% 29.89 in - NNE 6.9 mph - N/A   Scattered Clouds
2:00 AM 80.6 °F 84.6 °F 71.6 °F 74% 29.86 in - NNW 3.5 mph - N/A   Unknown
3:00 AM 78 °F - 71 °F 73% 29.87 in - NNW 3.5 mph - -  
3:00 AM 78.8 °F - 71.6 °F 78% 29.86 in - NNW 3.5 mph - N/A   Unknown
4:00 AM 77.0 °F - 71.6 °F 83% 29.89 in - SSW 5.8 mph - N/A   Unknown
5:00 AM 77.0 °F - 71.6 °F 83% 29.92 in - SSW 4.6 mph - N/A   Scattered Clouds
6:00 AM 80 °F - 72 °F 71% 29.92 in - SSW 4.6 mph - -  
6:00 AM 78.8 °F - 71.6 °F 78% 29.92 in - SSW 4.6 mph - N/A   Scattered Clouds
7:00 AM 84.2 °F 89.6 °F 71.6 °F 66% 29.95 in - NW 5.8 mph - N/A   Unknown
8:00 AM 89.6 °F 94.7 °F 69.8 °F 52% 29.95 in - NNE 6.9 mph - N/A   Unknown
9:00 AM 95 °F - 63 °F 25% 29.94 in - NE 6.9 mph - -  
9:00 AM 95.0 °F 96.0 °F 62.6 °F 34% 29.95 in - NE 6.9 mph - N/A   Unknown
10:00 AM 96.8 °F 97.1 °F 60.8 °F 30% 29.95 in - NNE 9.2 mph - N/A   Unknown
11:00 AM 98.6 °F 100.0 °F 62.6 °F 30% 29.92 in - North 6.9 mph - N/A   Unknown
12:00 PM 101 °F - 59 °F 16% 29.88 in - ENE 9.2 mph - -  
12:00 PM 102.2 °F 102.4 °F 59.0 °F 24% 29.89 in - ENE 9.2 mph - N/A   Unknown
1:00 PM 96.8 °F 100.7 °F 66.2 °F 37% 29.86 in - NNW 9.2 mph - N/A   Mostly Cloudy
2:00 PM 98.6 °F 105.5 °F 69.8 °F 39% 29.83 in - WNW 12.7 mph - N/A   Scattered Clouds
3:00 PM 99 °F - 70 °F 30% 29.82 in - NW 10.4 mph - -  
3:00 PM 98.6 °F 105.5 °F 69.8 °F 39% 29.83 in - NW 10.4 mph - N/A   Scattered Clouds
4:00 PM 95.0 °F 101.3 °F 69.8 °F 44% 29.83 in - NW 13.8 mph - N/A   Unknown
5:00 PM 91.4 °F 96.8 °F 69.8 °F 49% 29.83 in - NNW 12.7 mph - N/A   Unknown
6:00 PM 87 °F - 69 °F 46% 29.89 in - North 10.4 mph - -  
6:00 PM 86.0 °F 90.4 °F 69.8 °F 58% 29.89 in - North 10.4 mph - N/A   Scattered Clouds
7:00 PM 86.0 °F 89.4 °F 68.0 °F 55% 29.89 in - North 9.2 mph - N/A   Unknown
8:00 PM 84.2 °F 88.4 °F 69.8 °F 62% 29.95 in - NE 6.9 mph - N/A   Unknown
9:00 PM 82 °F - 66 °F 49% 29.97 in - NE 4.6 mph - -  
9:00 PM 82.4 °F 84.6 °F 66.2 °F 58% 29.98 in - NE 4.6 mph - N/A   Scattered Clouds
10:00 PM 80.6 °F 82.7 °F 66.2 °F 61% 29.98 in - North 5.8 mph - N/A   Scattered Clouds
11:00 PM 80.6 °F 82.7 °F 66.2 °F 61% 29.95 in - North 6.9 mph - N/A   Mostly Cloudy